Regional Weather Roundup
Issued by NWS

Home | Current Version | Previous Version | Graphics & Text | Print | Product List | Glossary On
Versions: 1 2 3 4 5 6 7 8 9 10 11 12 13 14 15 16 17 18 19 20 21 22 23 24 25 26 27 28 29 30 31 32 33 34 35 36 37 38 39 40 41 42 43 44 45 46 47 48 49 50
000
ASUS43 KFSD 180110
RWRSD

WEATHER ROUNDUP FOR SOUTH DAKOTA
NATIONAL WEATHER SERVICE SIOUX FALLS SD
800 PM CDT TUE OCT 17 2017

NOTE: "FAIR" INDICATES FEW OR NO CLOUDS BELOW 12,000 FEET WITH NO
SIGNIFICANT WEATHER AND/OR OBSTRUCTIONS TO VISIBILITY.


SDZ001>005-009-010-012>017-180200-
NORTHWEST AND NORTH CENTRAL SOUTH DAKOTA

CITY           SKY/WX    TMP DP  RH WIND       PRES   REMARKS
BUFFALO          N/A     60  20  21 W9        29.74F
FAITH            N/A     56  26  31 S14       29.81F
MOBRIDGE       CLEAR     64  42  44 S8        29.76F
$$

SDZ012>016-024>037-041>051-057-063-072>074-180200-
SOUTHWEST AND SOUTH CENTRAL SOUTH DAKOTA

CITY           SKY/WX    TMP DP  RH WIND       PRES   REMARKS
RAPID CTY ARPT CLOUDY    52  27  38 NW8       29.85R
PIERRE         CLEAR     62  36  37 S9        29.81S
CUSTER         CLEAR     54  18  24 SW6       29.98S
ELLSWORTH AFB  CLOUDY    56  25  30 NE5       29.85R
PHILIP         CLEAR     59  34  39 CALM      29.82F
PINE RIDGE     CLEAR     57  26  30 CALM      29.90S
SPEARFISH      FAIR      54  27  35 S8        29.88S
WINNER         FAIR      69  35  28 S13       29.86S
$$

SDZ004>011-016>023-039-040-180200-
NORTHEAST SOUTH DAKOTA

CITY           SKY/WX    TMP DP  RH WIND       PRES   REMARKS
ABERDEEN       CLEAR     60  40  47 S7        29.81S
WATERTOWN      CLEAR     58  42  55 S7        29.86S
BROOKINGS      CLEAR     62  40  44 S9        29.90R
SISSETON         N/A     62  44  51 SW12      29.80S
$$

SDZ017-020-022-023-036>040-048>070-180200-
SOUTHEAST SOUTH DAKOTA

CITY           SKY/WX    TMP DP  RH WIND       PRES   REMARKS
SIOUX FALLS    CLEAR     60  42  51 S10       29.91S
HURON          CLEAR     65  41  41 S8        29.84S
CHAMBERLAIN    CLEAR     58  40  51 SE8       29.85S
MITCHELL       CLEAR     62  42  47 S12       29.88S
YANKTON        CLEAR     66  39  37 E5        29.92S
$$

ABBREVIATIONS USED IN REMARKS
   TC - TEMPERATURE IN CELSIUS
  WCI - WIND CHILL INDEX
   HX - HEAT INDEX
  VSB - VISIBILITY




USA.gov is the U.S. government's official web portal to all federal, state and local government web resources and services.